Regional Weather Roundup
Issued by NWS

Home | Current Version | Previous Version | Graphics & Text | Print | Product List | Glossary On
Versions: 1 2 3 4 5 6 7 8 9 10 11 12 13 14 15 16 17 18 19 20 21 22 23 24 25 26 27 28 29 30 31 32 33 34 35 36 37 38 39 40 41 42 43 44 45 46 47 48 49 50
000
ASUS43 KLMK 251010
RWRKY
KENTUCKY REGIONAL WEATHER ROUNDUP
NATIONAL WEATHER SERVICE LOUISVILLE KY
600 AM EDT FRI JUL 25 2014

NOTE "FAIR" INDICATES FEW OR NO CLOUDS BELOW 12,000 FEET
WITH NO SIGNIFICANT WEATHER AND/OR OBSTRUCTIONS TO VISIBILITY.

KYZ001>023-026-027-061>063-070>075-251100-
WESTERN AND SOUTH CENTRAL KENTUCKY

CITY           SKY/WX    TMP DP  RH WIND       PRES   REMARKS
PADUCAH        CLEAR     59  56  89 E3        30.04F FOG
HENDERSON      CLEAR     54  50  87 CALM      30.06S
OWENSBORO      CLEAR     57  53  86 CALM      30.08R
HOPKINSVILLE   CLEAR     57  57  99 N2        30.06S
BOWLING GREEN  CLEAR     56  53  90 CALM      30.06R
GLASGOW        CLEAR     55  55  99 CALM      30.07S
$$

KYZ024-025-028>034-038-045-046-053-251100-
NORTH CENTRAL KENTUCKY

CITY           SKY/WX    TMP DP  RH WIND       PRES   REMARKS
LOUISVILLE/SDF PTCLDY    63  56  78 CALM      30.07S
LOUISVILLE/LOU CLEAR     59  54  83 CALM      30.07F
FORT KNOX      CLEAR     55  54  97 CALM      30.06S
$$

KYZ035>037-039>044-047>052-055>060-089>105-251100-
NORTHEAST KENTUCKY

CITY           SKY/WX    TMP DP  RH WIND       PRES   REMARKS
LEXINGTON      CLEAR     57  53  86 CALM      30.09R
COVINGTON      PTCLDY    61  51  70 CALM      30.09R
FRANKFORT      CLEAR     55  53  93 CALM      30.07S
$$

KYZ054-064>069-076>088-106>120-251100-
SOUTHEAST KENTUCKY

CITY           SKY/WX    TMP DP  RH WIND       PRES   REMARKS
JACKSON        FOG       59  58  96 CALM      30.08R VSB<1/4
LONDON         FOG       60  58  92 CALM      30.08R VSB 1/4
SOMERSET       FOG       59  59 100 CALM      30.09R VSB 1/4
MIDDLESBORO    CLOUDY    61  60  96 CALM      30.09R
MONTICELLO     FOG       57  57 100 CALM      30.09R VSB<1/4
$$




USA.gov is the U.S. government's official web portal to all federal, state and local government web resources and services.